Weather Roundup
Issued by NWS Chicago, IL

Home | Current Version | Previous Version | Text Only | Print | Product List | Glossary Off
Versions: 1 2 3 4 5 6 7 8 9 10 11 12 13 14 15 16 17 18 19 20 21 22 23 24 25 26 27 28 29 30 31 32 33 34 35 36 37 38 39 40 41 42 43 44 45 46 47 48 49 50

000
NZUS59 KLOT 171906
HRRLOT

CHICAGO AREA WEATHER ROUNDUP
NATIONAL WEATHER SERVICE CHICAGO/ROMEOVILLE IL
200 PM CDT THU APR 17 2014

NOTE: "FAIR" INDICATES FEW OR NO CLOUDS BELOW 12,000 FEET WITH NO
SIGNIFICANT WEATHER AND/OR OBSTRUCTIONS TO VISIBILITY.

* THESE STATIONS ARE NOT UNDER NWS QUALITY CONTROL. THEY ALSO MAY NOT
  REPORT WEATHER SUCH AS PRECIPITATION OR FOG.

ILZ005-006-012>014-019>023-172000-
NORTHEAST ILLINOIS

CITY           SKY/WX    TMP DP  RH WIND       PRES   REMARKS
OHARE          PTSUNNY   60  39  45 SW15G21   30.18S
MIDWAY         PTSUNNY   61  39  44 W16G22    30.19S
AURORA         MOSUNNY   58  39  49 SW13      30.20S
LANSING*       SUNNY     63  36  36 SW10      30.19F
JOLIET*        MOSUNNY   59  37  44 W8        30.21S
WAUKEGAN       MOSUNNY   57  38  48 SW13G21   30.17S
DUPAGE AIRPORT MOSUNNY   59  39  47 SW15      30.19S
WHEELING       SUNNY     59  38  45 W12G21    30.19S
KANKAKEE*      MOSUNNY   64  40  41 SW18      30.21S
MORRIS*        MOSUNNY   59  34  39 W14       30.21R
NORTHERLY IS     N/A     59  35  40 W10         N/A
$$

WIZ051-052-058>065-066-070>072-172000-
SOUTHEAST WISCONSIN

CITY           SKY/WX    TMP DP  RH WIND       PRES   REMARKS
MILWAUKEE      PTSUNNY   53  37  54 SW13      30.19R
KENOSHA*       MOSUNNY   55  41  59 W15G23    30.18R
RACINE*        PTSUNNY   56  40  55 W10G22    30.19R
BURLINGTON     PTSUNNY   51  38  62 SW9       30.19R
WAUKESHA       CLOUDY    46  37  71 W12       30.19R
$$

INZ001>003-010>013-019-020-172000-
NORTHWEST INDIANA

CITY           SKY/WX    TMP DP  RH WIND       PRES   REMARKS
GARY*          MOSUNNY   63  34  34 SW12G23   30.19F
MICHIGAN CITY* NOT AVBL
RENSSELAER*    NOT AVBL
VALPARAISO     MOSUNNY   62  34  35 SW15G24   30.21S
$$

LMZ740>746-172000-
SOUTHERN LAKE MICHIGAN

STATION/POSITION TIME  SKY/WX   TEMP WIND        PRES    VSBY
                                AIR  DIR/SP/G
                 (UTC)          (F)  (DEG/KT/KT) (MB)    (MI)
HARRISON CRIB    1900            57  230/ 12/ 16   N/A
BURNHAM HARBOR   1900            59  270/ 10/ 15   N/A
CALUMET HARBOR   1900            59  200/  7/ 18 1022.8R
BURNS HARBOR     NOT AVBL
MICHIGAN CITY    1900            58  190/ 21/ 26   N/A
$$

ABBREVIATIONS USED IN REMARKS
   TC - TEMPERATURE IN CELSIUS
  WCI - WIND CHILL INDEX
   HX - HEAT INDEX
  VSB - VISIBILITY
$$


USA.gov is the U.S. government's official web portal to all federal, state and local government web resources and services.